Weather History for KBUU - September, 2013

Change the Weather History Date:

Wednesday, September 18, 2013

  Actual Average (KENW) Record (KENW)
Temperature  
Mean Temperature 66 °F -  
Max Temperature 78 °F 71 °F 92 °F (1955)
Min Temperature 53 °F 52 °F 37 °F (1956)
Growing Degree Days 16 (Base 50)    
Moisture  
Dew Point 59 °F    
Average Humidity 83    
Maximum Humidity 99    
Minimum Humidity 58    
Precipitation  
Precipitation 0.00 in - - ()
Sea Level Pressure  
Sea Level Pressure 30.01 in    
Wind  
Wind Speed 3 mph (South)    
Max Wind Speed 14 mph    
Max Gust Speed 20 mph    
Visibility 10 miles    
Events Rain    
Averages and records for this station are not official NWS values.
T = Trace of Precipitation, MM = Missing Value Source: NWS Daily Summary

Daily Weather History Graph

Daily Weather History Graph

Search for Another Location

Airport or City:

Trip Planner

Search our weather history database for the weather conditions in past years. The results will help you decide how hot, cold, wet, or windy it might be!

Date:

Astronomy

Sep. 18, 2013 Rise Set
Actual Time 6:36 AM CDT 6:57 PM CDT
Civil Twilight 6:08 AM CDT 7:25 PM CDT
Nautical Twilight 5:34 AM CDT 7:58 PM CDT
Astronomical Twilight 5:00 AM CDT 8:32 PM CDT
Moon 6:19 PM CDT (9/18) 5:38 AM CDT (9/18)
Length of Visible Light 13h 17m
Length of Day
12h 20m
Waxing Gibbous, 99% of the Moon is Illuminated
Sep 18
Waxing Gibbous
Sep 19
Full
Sep 26
Last Quarter
Oct 4
New
Oct 11
First Quarter

Hourly Weather History & Observations

Time (CDT) Temp. Dew Point Humidity Pressure Visibility Wind Dir Wind Speed Gust Speed Precip Events Conditions
12:15 AM 54.0 °F 53.6 °F 99% 30.12 in 7.0 mi Calm Calm - N/A   Mostly Cloudy
12:35 AM 54.7 °F 54.5 °F 99% 30.12 in 7.0 mi Calm Calm - N/A   Mostly Cloudy
12:55 AM 55.6 °F 54.5 °F 96% 30.11 in 10.0 mi Calm Calm - N/A   Scattered Clouds
1:15 AM 56.8 °F 54.9 °F 93% 30.11 in 10.0 mi Calm Calm - N/A   Clear
1:35 AM 57.2 °F 54.9 °F 92% 30.11 in 10.0 mi Calm Calm - N/A   Clear
1:55 AM 55.8 °F 54.1 °F 94% 30.11 in 10.0 mi Calm Calm - N/A   Scattered Clouds
2:15 AM 55.6 °F 54.0 °F 94% 30.10 in 10.0 mi Calm Calm - N/A   Scattered Clouds
2:35 AM 55.2 °F 53.6 °F 94% 30.10 in 10.0 mi Calm Calm - N/A   Scattered Clouds
2:55 AM 55.0 °F 53.1 °F 93% 30.09 in 10.0 mi Calm Calm - N/A   Mostly Cloudy
3:15 AM 55.6 °F 53.6 °F 93% 30.09 in 10.0 mi Calm Calm - N/A   Overcast
3:35 AM 55.4 °F 54.1 °F 96% 30.09 in 10.0 mi Calm Calm - N/A   Overcast
3:55 AM 55.4 °F 52.9 °F 91% 30.09 in 10.0 mi Calm Calm - N/A   Overcast
4:15 AM 54.5 °F 52.3 °F 92% 30.08 in 10.0 mi Calm Calm - N/A   Mostly Cloudy
4:35 AM 53.6 °F 51.4 °F 92% 30.08 in 10.0 mi Calm Calm - N/A   Scattered Clouds
4:55 AM 53.1 °F 51.6 °F 95% 30.08 in 10.0 mi Calm Calm - N/A   Mostly Cloudy
5:15 AM 53.6 °F 51.8 °F 94% 30.07 in 10.0 mi Calm Calm - N/A   Overcast
5:35 AM 53.6 °F 52.2 °F 95% 30.07 in 10.0 mi Calm Calm - N/A   Overcast
5:55 AM 55.0 °F 52.5 °F 91% 30.07 in 10.0 mi South 3.5 mph - N/A   Overcast
6:15 AM 55.6 °F 52.7 °F 90% 30.07 in 10.0 mi Calm Calm - N/A   Mostly Cloudy
6:35 AM 55.4 °F 52.9 °F 91% 30.08 in 10.0 mi Calm Calm - N/A Rain Light Rain
6:55 AM 55.4 °F 53.6 °F 94% 30.07 in 10.0 mi Calm Calm - N/A   Overcast
7:15 AM 55.9 °F 53.6 °F 92% 30.08 in 10.0 mi Calm Calm - N/A   Scattered Clouds
7:35 AM 56.7 °F 54.7 °F 93% 30.07 in 7.0 mi Calm Calm - N/A Rain Light Rain
7:55 AM 56.5 °F 54.7 °F 94% 30.07 in 5.0 mi Calm Calm - N/A Rain Light Rain
8:15 AM 56.7 °F 55.4 °F 96% 30.07 in 7.0 mi Calm Calm - N/A Rain Light Rain
8:35 AM 57.2 °F 55.4 °F 94% 30.07 in 10.0 mi Calm Calm - N/A   Mostly Cloudy
8:55 AM 57.7 °F 56.1 °F 94% 30.06 in 10.0 mi Calm Calm - N/A   Overcast
9:15 AM 59.7 °F 57.4 °F 92% 30.06 in 10.0 mi South 3.5 mph - N/A   Mostly Cloudy
9:35 AM 62.6 °F 57.4 °F 83% 30.05 in 10.0 mi South 4.6 mph - N/A   Scattered Clouds
9:55 AM 66.2 °F 58.3 °F 76% 30.05 in 10.0 mi South 8.1 mph - N/A   Scattered Clouds
10:15 AM 66.6 °F 58.1 °F 74% 30.04 in 10.0 mi South 6.9 mph - N/A   Scattered Clouds
10:35 AM 70.7 °F 59.4 °F 67% 30.03 in 10.0 mi South 5.8 mph - N/A   Clear
10:55 AM 71.6 °F 59.4 °F 65% 30.03 in 10.0 mi South 6.9 mph - N/A   Clear
11:15 AM 74.5 °F 60.4 °F 61% 30.02 in 10.0 mi South 10.4 mph - N/A   Clear
11:35 AM 73.4 °F 60.6 °F 64% 30.02 in 10.0 mi South 9.2 mph - N/A   Scattered Clouds
11:55 AM 75.2 °F 61.0 °F 61% 30.02 in 10.0 mi SSW 10.4 mph - N/A   Scattered Clouds
12:15 PM 73.8 °F 61.2 °F 65% 30.02 in 10.0 mi South 8.1 mph - N/A   Scattered Clouds
12:35 PM 77.2 °F 61.9 °F 59% 30.00 in 10.0 mi South 6.9 mph - N/A   Scattered Clouds
12:55 PM 78.1 °F 62.4 °F 58% 30.00 in 10.0 mi SSW 10.4 mph - N/A   Scattered Clouds
1:15 PM 77.0 °F 62.8 °F 61% 29.99 in 10.0 mi South 9.2 mph 16.1 mph N/A   Scattered Clouds
1:35 PM 76.1 °F 63.0 °F 64% 29.99 in 10.0 mi SSW 8.1 mph - N/A   Mostly Cloudy
1:55 PM 77.4 °F 63.5 °F 62% 29.98 in 10.0 mi SSW 11.5 mph 18.4 mph N/A   Mostly Cloudy
2:15 PM 77.0 °F 63.7 °F 63% 29.97 in 10.0 mi SSW 10.4 mph 17.3 mph N/A   Scattered Clouds
2:35 PM 76.1 °F 63.7 °F 65% 29.97 in 10.0 mi South 6.9 mph - N/A   Scattered Clouds
2:55 PM 76.1 °F 63.7 °F 65% 29.96 in 10.0 mi SSW 13.8 mph 19.6 mph N/A   Scattered Clouds
3:15 PM 76.5 °F 64.0 °F 65% 29.95 in 10.0 mi South 10.4 mph 18.4 mph N/A   Scattered Clouds
3:35 PM 74.7 °F 64.4 °F 70% 29.94 in 10.0 mi South 10.4 mph 19.6 mph N/A   Scattered Clouds
3:55 PM 74.5 °F 64.4 °F 71% 29.93 in 10.0 mi South 5.8 mph - N/A   Clear
4:15 PM 75.0 °F 64.6 °F 70% 29.93 in 10.0 mi South 10.4 mph 16.1 mph N/A   Clear
4:35 PM 73.8 °F 64.6 °F 73% 29.94 in 10.0 mi South 6.9 mph - N/A   Clear
4:55 PM 73.6 °F 64.6 °F 73% 29.93 in 10.0 mi South 6.9 mph - N/A   Clear
5:15 PM 73.4 °F 64.8 °F 74% 29.93 in 10.0 mi South 3.5 mph - N/A   Clear
5:35 PM 73.4 °F 64.9 °F 75% 29.92 in 10.0 mi South 5.8 mph - N/A   Clear
5:55 PM 73.9 °F 65.3 °F 74% 29.92 in 10.0 mi South 5.8 mph - N/A   Clear
6:15 PM 73.8 °F 65.3 °F 75% 29.92 in 10.0 mi South 8.1 mph - N/A   Clear
6:35 PM 72.5 °F 65.3 °F 78% 29.92 in 10.0 mi South 4.6 mph - N/A   Clear
6:55 PM 70.7 °F 65.3 °F 83% 29.92 in 10.0 mi South 3.5 mph - N/A   Clear
7:15 PM 69.1 °F 64.8 °F 86% 29.92 in 10.0 mi South 3.5 mph - N/A   Clear
7:35 PM 67.5 °F 64.4 °F 90% 29.92 in 10.0 mi SSE 3.5 mph - N/A   Clear
7:55 PM 67.1 °F 64.4 °F 91% 29.93 in 10.0 mi Calm Calm - N/A   Clear
8:15 PM 66.4 °F 63.9 °F 92% 29.93 in 10.0 mi South 3.5 mph - N/A   Clear
8:35 PM 65.8 °F 63.3 °F 92% 29.94 in 10.0 mi Calm Calm - N/A   Clear
8:55 PM 64.4 °F 62.8 °F 94% 29.94 in 10.0 mi Calm Calm - N/A   Clear
9:15 PM 64.2 °F 62.6 °F 94% 29.94 in 10.0 mi South 3.5 mph - N/A   Clear
9:35 PM 65.3 °F 62.8 °F 92% 29.94 in 10.0 mi South 4.6 mph - N/A   Clear
9:55 PM 65.7 °F 62.8 °F 90% 29.94 in 10.0 mi South 4.6 mph - N/A   Clear
10:15 PM 65.5 °F 62.6 °F 90% 29.94 in 10.0 mi South 3.5 mph - N/A   Clear
10:35 PM 65.5 °F 62.6 °F 90% 29.94 in 10.0 mi South 4.6 mph - N/A   Clear
10:55 PM 65.8 °F 62.6 °F 89% 29.94 in 10.0 mi South 4.6 mph - N/A   Mostly Cloudy
11:15 PM 66.2 °F 62.8 °F 89% 29.93 in 10.0 mi South 5.8 mph - N/A   Scattered Clouds
11:35 PM 66.7 °F 63.0 °F 88% 29.94 in 10.0 mi South 5.8 mph - N/A   Scattered Clouds
11:55 PM 67.1 °F 63.1 °F 87% 29.94 in 10.0 mi South 5.8 mph - N/A   Scattered Clouds